Regional Weather Roundup
Issued by NWS

Home | Current Version | Previous Version | Text Only | Print | Product List | Glossary Off
Versions: 1 2 3 4 5 6 7 8 9 10 11 12 13 14 15 16 17 18 19 20 21 22 23 24 25 26 27 28 29 30 31 32 33 34 35 36 37 38 39 40 41 42 43 44 45 46 47 48 49 50

000
ASUS43 KOAX 040210
RWRNE

WEATHER ROUNDUP FOR NEBRASKA
NATIONAL WEATHER SERVICE OMAHA NE
900 PM CDT TUE MAY 03 2016

NOTES: SATELLITE DATA IS BEING USED TO AUGMENT CLOUD COVER ABOVE
       12000 FEET.
       "FAIR" INDICATES FEW OR NO CLOUDS BELOW 12,000 FEET WITH NO
       SIGNIFICANT WEATHER AND/OR OBSTRUCTIONS TO VISIBILITY.

  * THESE STATIONS DO NOT REPORT WEATHER SUCH AS RAIN...SNOW OR FOG.

NEZ001>004-019>022-054>056-040300-
NEBRASKA PANHANDLE

CITY           SKY/WX    TMP DP  RH WIND       PRES   REMARKS
SCOTTSBLUFF    CLEAR     63  39  41 N7        30.11R
ALLIANCE       CLEAR     56  41  57 N9        30.10S
CHADRON        CLEAR     62  43  49 E5        30.09R
KIMBALL        CLEAR     57  40  52 NW6       30.17R
SIDNEY         CLEAR     58  35  42 N3        30.14R
$$

NEZ057>060-069>072-079>082-040300-
SOUTHWEST NEBRASKA

CITY           SKY/WX    TMP DP  RH WIND       PRES   REMARKS
NORTH PLATTE   CLEAR     57  36  45 N7        30.04R
IMPERIAL       CLEAR     59  38  45 N7        30.08R
LEXINGTON      CLEAR     59  46  63 NW6       30.02R
MCCOOK         CLEAR     62  37  39 NW5       30.04S
OGALLALA       CLEAR     53  36  52 N9        30.08R
$$

NEZ005>010-023>029-035>040-094-040300-
NORTH CENTRAL NEBRASKA

CITY           SKY/WX    TMP DP  RH WIND       PRES   REMARKS
VALENTINE      CLEAR     63  40  42 NW8       30.01S
AINSWORTH      CLEAR     61  43  51 W7        30.00F
BROKEN BOW     CLEAR     55  42  61 NW7       30.00S
O`NEILL        CLEAR     60  43  52 W8        29.95S
ORD            CLEAR     58  43  57 NW6       29.97R
THEDFORD       CLEAR     61  39  45 NW3       30.05R
$$

NEZ041-046>049-061>064-073>077-083>087-040300-
SOUTH CENTRAL NEBRASKA

CITY           SKY/WX    TMP DP  RH WIND       PRES   REMARKS
GRAND ISLAND   CLEAR     57  45  64 W8        29.97S
AURORA         CLEAR     58  44  60 W9        29.96S
HASTINGS       CLEAR     61  43  51 W7        29.98S
HEBRON         CLEAR     59  45  59 W5        29.97S
HOLDREGE       CLEAR     59  43  54 CALM      30.01S
KEARNEY *      CLEAR     61  43  51 W6        30.00S
YORK           CLEAR     57  46  67 W9        29.95S
$$

NEZ011>018-030>034-042>045-040300-
NORTHEAST NEBRASKA

CITY           SKY/WX    TMP DP  RH WIND       PRES   REMARKS
NORFOLK        CLEAR     58  43  57 SW7       29.90F
ALBION         CLEAR     60  42  51 CALM      29.95S
BLAIR          CLEAR     64  43  46 W5        29.89S
COLUMBUS *     CLEAR     61  39  44 W7        29.93F
FREMONT        CLEAR     58  47  66 W6        29.90F
TEKAMAH        CLEAR     59  47  64 W7        29.86F
WAYNE          CLEAR     61  45  55 W10       29.88F
$$

NEZ050>053-065>068-078-088>093-040300-
SOUTHEAST NEBRASKA

CITY           SKY/WX    TMP DP  RH WIND       PRES   REMARKS
LINCOLN        CLEAR     65  42  43 W7        29.93S
OMAHA EPPLEY   PTCLDY    65  42  43 W8        29.88S
BEATRICE       CLEAR     60  44  56 W6        29.94F
FALLS CITY     CLEAR     60  43  53 W8        29.91F
NEBRASKA CITY  CLEAR     59  42  54 W9        29.91F
PLATTSMOUTH    CLEAR     64  45  49 W7        29.90S
$$

NEZ044-045-051>053-067-040300-
OMAHA AREA

CITY           SKY/WX    TMP DP  RH WIND       PRES   REMARKS
OMAHA EPPLEY   PTCLDY    65  42  43 W8        29.88S
BLAIR          CLEAR     64  43  46 W5        29.89S
FREMONT        CLEAR     58  47  66 W6        29.90F
MILLARD        CLEAR     64  43  46 CALM      29.89S
OFFUTT AFB     CLEAR     60  47  64 W2        29.88F
PLATTSMOUTH    CLEAR     64  45  49 W7        29.90S
WAHOO          FAIR      63  45  51 NW7       29.91S
$$




USA.gov is the U.S. government's official web portal to all federal, state and local government web resources and services.